Weather in Krugloye

Russia / Belgorod Oblast     50°57′02″N   38°33′07″E
temp.,
°C
wind,
m/s
gust,
m/s
humid.,
%
clouds,
%
prec.,
mm/h
press.,
hPa
HPBL,
m
26 february, fri
fri2600:00+2w5999100 0.2 1020205
03:00+2wnw51199100 0.2 1020258
06:00+2w48100100 0.0 1019150
09:00+3wnw511100100 0.1 1018217
12:00+5w713100100 0.0 1017361
15:00+4w81697100 0.0 1016535
18:00+4w71597100 0.1 1014472
21:00+3w61296100 0.3 1013362
27 february, sat
sat2700:00+2wnw5119799 0.0 1012417
03:00+1w51194100 0.0 1012408
06:00+1w51095100 0.0 1010382
09:00+1w61193100 0.1 1010524
12:00+3wnw61083100 0.0 1009780
15:00+2wnw51086100 0.1 1010624
18:00+1wnw6109495 0.0 1010530
21:00+1nw599797 0.1 1011468
28 february, sun
sun2800:000nw4998100 0.1 1013411
03:000nnw389799 0.1 1014313
06:00−3n488376 0.1 1016525
09:00−3nnw587471 0.1 1017552
12:00−2nnw577262 0.0 1018641
15:00−1nnw577378 0.0 1018730
18:00−2n478898 0.1 1019565
21:00−2nnw259095 0.2 1021404
1 march, mon
mon100:00−3n348890 0.1 1022528
03:00−4nne238786 0.1 1023356
06:00−5n23900 0.0 1024253
09:00−5n348416 0.0 1026389
12:00−3nne336790 0.0 1027650
15:00−1n236392 0.0 1028741
18:00−3n247578 0.0 1029167
21:00−4n128239 0.0 103177
2 march, tue
tue200:00−4wnw22830 0.0 103159
03:00−4wsw368617 0.0 1030150
06:00−3w4989100 0.0 1029308
09:00−2w61185100 0.0 1027503
12:000w71281100 0.0 1024653
15:00+1w81484100 0.0 1022699
18:00+1wnw71393100 0.0 1020589
21:000nw51294100 0.2 1020676